Regional Weather Roundup
Issued by NWS

Home | Current Version | Previous Version | Text Only | Print | Product List | Glossary Off
Versions: 1 2 3 4 5 6 7 8 9 10 11 12 13 14 15 16 17 18 19 20 21 22 23 24 25 26 27 28 29 30 31 32 33 34 35 36 37 38 39 40 41 42 43 44 45 46 47 48 49 50

000
ASUS43 KDMX 240306
RWRIA

WEATHER ROUNDUP FOR IOWA
NATIONAL WEATHER SERVICE DES MOINES IA
1000 PM CDT SAT SEP 23 2017

NOTE: "FAIR" INDICATES FEW OR NO CLOUDS BELOW 12,000 FEET WITH NO
SIGNIFICANT WEATHER AND/OR OBSTRUCTIONS TO VISIBILITY.

* - THESE STATIONS ARE NOT NWS STATIONS...THUS NOT UNDER NWS
QUALITY CONTROL.  THEY ALSO DO NOT REPORT WEATHER SUCH
AS PRECIPITATION OR FOG.

IAZ001>003-012>014-020>022-031>034-043>046-240400-
   NORTHWEST IOWA

CITY           SKY/WX    TMP DP  RH WIND       PRES   REMARKS
CARROLL *      PTCLDY    70  64  83 S5        29.94S
CHEROKEE *     CLOUDY    72  64  77 S6        29.91R
DENISON *      CLEAR     77  63  61 SE13      29.94R
LE MARS *      PTCLDY    77  64  65 SE12      29.88S
ORANGE CITY *  PTCLDY    77  68  73 SE7       29.90S
SHELDON *      CLOUDY    77  64  65 S9        29.89R
SIOUX CITY     PTCLDY    78  64  61 SE12      29.87S HX  80
SPENCER        PTCLDY    74  63  68 S7        29.92R
STORM LAKE *   PTCLDY    73  63  68 S8        29.93S
$$

IAZ055>058-069>071-079>083-090>094-240400-
   SOUTHWEST IOWA

CITY           SKY/WX    TMP DP  RH WIND       PRES   REMARKS
ATLANTIC *     CLEAR     75  64  69 S6        29.94S
AUDUBON *      CLEAR     66  63  88 CALM      29.96S
CLARINDA *     CLEAR     73  66  78 SW3       29.96S
COUNCIL BLFS * CLEAR     77  66  69 S10       29.93R
CRESTON *      CLEAR     73  64  73 SE7       29.98S
HARLAN  *      CLEAR     75  64  69 S6        29.97R
LAMONI         CLEAR     79  65  62 S6        29.97S HX  81
RED OAK *      CLEAR     73  64  73 S5        29.94S
SHENANDOAH *   CLEAR     73  66  78 SE6       29.94S
$$

IAZ047>049-059>061-072>074-084-240400-
   CENTRAL IOWA

CITY           SKY/WX    TMP DP  RH WIND       PRES   REMARKS
AMES           CLEAR     73  67  81 SE6       29.96S
ANKENY *       CLEAR     73  66  78 SE5       29.96F
BOONE *        CLEAR     75  64  69 SE6       29.95F
CHARITON *     MOCLDY    75  66  73 SE7       29.97S
DES MOINES     CLEAR     80  65  59 SE9       29.95S HX  82
GRINNELL*      CLEAR     74  63  69 SE5       30.00S
KNOXVILLE *    CLEAR     77  63  61 SE7       29.96S
MARSHALLTOWN   CLEAR     71  64  78 SE6       29.97S
NEWTON *       CLEAR     73  63  68 SE7       29.98S
PELLA *        CLEAR     75  63  65 SE5       29.98S
PERRY *          N/A     73  64  73 SE6       29.95S
$$

IAZ004>006-015-016-023>025-035-036-240400-
   NORTH CENTRAL IOWA

CITY           SKY/WX    TMP DP  RH WIND       PRES   REMARKS
ALGONA *       CLOUDY    75  64  69 SE9       29.94S
CLARION *      CLEAR     75  66  73 SE8       29.96S
ESTHERVILLE    PTCLDY    73  64  73 S8        29.92S
FORT DODGE *   CLEAR     80  64  58 SE8       29.95S HX  82
MASON CITY     CLEAR     72  63  73 S8        29.98S
FOREST CITY *    N/A     73  63  68 S7        29.96S
WEBSTER CITY * CLEAR     77  64  65 S9        29.94S
IOWA FALLS *     N/A     73  64  73 SE7       29.99S
$$

IAZ007>011-017>019-026>030-037>042-050>054-066-240400-
   NORTHEAST IOWA

CITY           SKY/WX    TMP DP  RH WIND       PRES   REMARKS
CEDAR RAPIDS   CLEAR     75  63  66 S3        30.00R
CHARLES CITY * CLEAR     75  63  64 SE8       29.99S
CLINTON *      CLEAR    N/A N/A N/A SE7       30.02S
DECORAH *      CLEAR     75  64  69 SE8       30.00S
DUBUQUE        CLEAR     73  64  73 S7        30.04R
MONTICELLO *   CLEAR     68  63  83 CALM      30.01S
OELWEIN *      CLEAR     73  64  73 SE8       30.01S
WATERLOO       PTCLDY    77  61  57 SE7       29.97S
$$

IAZ064-065-067-068-078-240400-
   EAST CENTRAL IOWA

CITY           SKY/WX    TMP DP  RH WIND       PRES   REMARKS
DAVENPORT      CLEAR     70  65  84 SE6       30.03S
IOWA CITY      CLEAR     74  65  73 CALM      30.01S
MUSCATINE *    CLEAR     72  66  83 CALM      30.00S
QUAD CITIES    CLEAR     76  63  64 CALM      30.00S
$$

IAZ062-063-075>077-085>089-095>099-240400-
   SOUTHEAST IOWA

CITY           SKY/WX    TMP DP  RH WIND       PRES   REMARKS
BURLINGTON     CLEAR     75  64  68 SE5       30.00S
FAIRFIELD *    CLEAR     73  63  68 SE5       29.99S
FORT MADISON * CLEAR     81  63  54 SE5       30.01S HX  82
KEOKUK *       CLEAR     79  63  57 SE5       30.00R HX  80
OSKALOOSA *      N/A     74  63  67 SE7       29.99S
OTTUMWA        CLEAR     75  64  68 SE8       29.99R
WASHINGTON *   CLEAR     72  64  78 SE6       30.01S
$$

ABBREVIATIONS USED IN REMARKS
   TC - TEMPERATURES IN CELSIUS
  WCI - WIND CHILL INDEX
   HX - HEAT INDEX
  VSB - VISIBILITY
$$




USA.gov is the U.S. government's official web portal to all federal, state and local government web resources and services.